Location: Chevoux
(46.3801°N, 4.9476°E)
Time: 03:01:05
(UTC+00:00)

S-56A Canister/Altair - All Passes

Search period start: 12 May 2021 00:00
Search period end: 22 May 2021 00:00
Orbit: 632 x 2501 km, 38.9° (Epoch: 11 May)

Date Brightness Start Highest point End Pass type
(mag) Time Alt. Az. Time Alt. Az. Time Alt. Az.
12 May - 13:24:35 10° S 13:34:58 24° SE 13:45:35 10° E daylight
12 May - 15:25:39 10° SW 15:39:35 49° SSE 15:52:32 10° E daylight
12 May - 17:30:33 10° WSW 17:45:23 63° S 17:57:23 10° E daylight
12 May - 19:37:09 10° W 19:50:51 54° SSW 20:00:54 10° SE visible
12 May - 21:44:54 10° W 21:54:34 27° SW 22:01:55 10° S visible
13 May - 12:52:25 10° S 13:01:50 21° SE 13:11:41 10° E daylight
13 May - 14:52:36 10° SW 15:06:09 46° SSE 15:19:19 10° E daylight
13 May - 16:57:03 10° WSW 17:11:54 63° S 17:24:29 10° E daylight
13 May - 19:03:26 10° W 19:17:38 57° SSW 19:28:19 10° ESE daylight
13 May - 21:10:55 10° W 21:21:44 31° SW 21:29:54 10° SSE visible
14 May - 12:20:31 10° SSE 12:28:45 18° SE 12:37:30 10° E daylight
14 May - 14:19:41 10° SW 14:32:45 43° SSE 14:45:59 10° E daylight
14 May - 16:23:39 10° WSW 16:38:23 62° S 16:51:29 10° E daylight
14 May - 18:29:45 10° W 18:44:19 59° SSW 18:55:39 10° ESE daylight
14 May - 20:36:59 10° W 20:48:49 35° SW 20:57:44 10° SSE visible
15 May - 11:49:00 10° SSE 11:55:45 15° SE 12:02:57 10° E daylight
15 May - 13:46:53 10° SSW 13:59:23 40° SSE 14:12:33 10° E daylight
15 May - 15:50:20 10° WSW 16:04:51 61° SSE 16:18:25 10° E daylight
15 May - 17:56:07 10° W 18:10:54 61° S 18:22:54 10° ESE daylight
15 May - 20:03:07 10° W 20:15:47 40° SW 20:25:27 10° SSE visible
15 May - 22:13:32 10° W 22:18:28 13° SW 22:22:50 10° SSW visible
16 May - 11:18:11 10° SE 11:22:49 12° SE 11:27:42 10° ESE daylight
16 May - 13:14:14 10° SSW 13:26:04 37° SE 13:39:00 10° E daylight
16 May - 15:17:08 10° WSW 15:31:19 59° SSE 15:45:14 10° E daylight
16 May - 17:22:34 10° W 17:37:27 63° S 17:50:03 10° ESE daylight
16 May - 19:29:19 10° W 19:42:40 44° SSW 19:53:03 10° SE visible
16 May - 21:38:35 10° W 21:45:45 17° SW 21:51:50 10° SSW visible
17 May - 12:41:43 10° SSW 12:52:50 33° SE 13:05:20 10° E daylight
17 May - 14:44:01 10° SW 14:57:48 57° SSE 15:11:57 10° E daylight
17 May - 16:49:06 10° W 17:03:56 64° S 17:17:06 10° ESE daylight
17 May - 18:55:35 10° W 19:09:27 47° SSW 19:20:32 10° SE daylight
17 May - 21:04:06 10° W 21:12:57 21° SW 21:20:19 10° S visible
18 May - 12:09:22 10° SSW 12:19:40 30° SE 12:31:32 10° E daylight
18 May - 14:11:02 10° SW 14:24:18 55° SSE 14:38:35 10° E daylight
18 May - 16:15:43 10° WSW 16:30:22 65° S 16:44:04 10° ESE daylight
18 May - 18:21:55 10° W 18:36:09 51° SSW 18:47:55 10° SE daylight
18 May - 20:29:51 10° W 20:40:04 24° SW 20:48:29 10° S visible
19 May - 11:37:10 10° S 11:46:35 26° SE 11:57:35 10° E daylight
19 May - 13:38:10 10° SW 13:50:51 52° SSE 14:05:09 10° E daylight
19 May - 15:42:26 10° WSW 15:56:48 65° S 16:10:56 10° ESE daylight
19 May - 17:48:20 10° W 18:02:47 54° SSW 18:15:10 10° SE daylight
19 May - 19:55:48 10° W 20:07:05 28° SW 20:16:27 10° S visible
20 May - 11:05:11 10° S 11:13:36 23° SE 11:23:29 10° E daylight
20 May - 13:05:24 10° SW 13:17:28 49° SSE 13:31:35 10° E daylight
20 May - 15:09:14 10° WSW 15:23:14 64° S 15:37:41 10° E daylight
20 May - 17:14:50 10° W 17:29:20 57° SSW 17:42:20 10° SE daylight
20 May - 19:21:52 10° W 19:34:01 32° SW 19:44:14 10° SSE daylight
21 May - 10:33:26 10° SSE 10:40:41 19° SE 10:49:09 10° E daylight
21 May - 12:32:46 10° SW 12:44:10 45° SSE 12:57:57 10° E daylight
21 May - 14:36:09 10° WSW 14:49:40 64° S 15:04:22 10° E daylight
21 May - 16:41:25 10° W 16:55:50 59° SSW 17:09:23 10° ESE daylight
21 May - 18:48:04 10° W 19:00:52 36° SW 19:11:52 10° SSE daylight
21 May - 21:00:44 10° WSW 21:03:45 11° WSW 21:06:38 10° SW visible
